Home > Weather > Eckernförde > Past weeks

Flag for Germany Past Weather in Eckernförde, Schleswig-Holstein, Germany — Yesterday and Last 2 Weeks

Now
61 °F

Cool.


Feels Like: 61 °F
Forecast: 54 / 65 °F
Wind: 14 mph from Southwest

Location: Schleswig-Jagel

Current Time: Jun 26, 2016 at 10:13:08 AM

Latest Report: Jun 26, 2016 at 9:20 AM


Visibility: 6 mi

Pressure: 29.92 "Hg

Humidity: 83%

Dew Point: 55 °F

Location of EckernfördeLocation

Past Weather in Eckernförde — Graph

°F

Eckernförde Temperature Yesterday

Maximum temperature yesterday: 64 °F (at 2:20 PM)
Minimum temperature yesterday: 61 °F (at 1:20 AM)
Average temperature yesterday: 62 °F

High & Low Weather Summary for the Past Weeks

 TemperatureHumidityPressure
High84 °F (Jun 23, 3:20 PM)100% (Jun 20, 11:20 PM)30.21 "Hg (Jun 20, 11:20 PM)
Low54 °F (Jun 12, 3:20 AM)32% (Jun 11, 3:20 PM)29.47 "Hg (Jun 14, 7:20 AM)
Average63 °F79%29.93 "Hg
* Reported Jun 11 8:20 AM — Jun 26 8:20 AM, Eckernförde, Weather by CustomWeather, © 2016

Note: Actual official high and low records may vary slightly from our data, if they occured in-between our weather recording intervals... More about our weather records

Advertising

Eckernförde Weather History for the Previous 24 Hours

Scroll right to see more
 ConditionsComfort  
Time TempWeatherWind HumidityBarometerVisibility
8:20 AM
Sun, Jun 26
61 °FCool.15 mph77%29.89 "HgN/A
7:20 AM57 °FCool.9 mph94%29.89 "Hg5 mi
6:20 AM57 °FCool.9 mph94%29.89 "Hg4 mi
5:20 AM55 °FCool.9 mph94%29.86 "Hg2 mi
4:20 AM55 °FCool.12 mph94%29.86 "Hg4 mi
3:20 AM57 °FCool.14 mph88%29.83 "Hg4 mi
2:20 AM57 °FCool.14 mph94%29.83 "Hg4 mi
1:20 AM57 °FCool.14 mph94%29.83 "Hg1 mi
12:20 AM57 °FCool.14 mph94%29.83 "Hg2 mi
11:20 PM
Sat, Jun 25
61 °FCool.9 mph94%29.80 "Hg3 mi
10:20 PM61 °FCool.7 mph94%29.80 "Hg4 mi
9:20 PM63 °FMild.12 mph94%29.80 "Hg4 mi
8:20 PM63 °FMild.10 mph94%29.80 "Hg4 mi
7:20 PM63 °FMild.10 mph94%29.83 "Hg4 mi
6:20 PM64 °FMild.14 mph88%29.83 "Hg4 mi
5:20 PM64 °FMild.16 mph88%29.86 "Hg3 mi
4:20 PM64 °FMild.13 mph94%29.89 "Hg4 mi
3:20 PM64 °FMild.14 mph88%29.92 "Hg4 mi
2:20 PM64 °FMild.10 mph88%29.92 "Hg4 mi
1:20 PM63 °FMild.10 mph94%29.95 "Hg4 mi
12:20 PM63 °FMild.12 mph94%29.95 "Hg2 mi
11:20 AM63 °FMild.5 mph94%29.98 "Hg1 mi
10:20 AM63 °FMild.8 mph88%29.98 "Hg4 mi
Weather by CustomWeather, © 2016

See weather overviewHow to use our weather pages